Location: Prairie Dale
(45.6972°N, 104.5033°W)
Time: 06:57:37
(UTC+00:00)

AO-109 - Pass Details

Date: 05 July 2022
Orbit: 469 x 506 km, 60.7° (Epoch: 12 August)

Event Time Altitude Azimuth Distance (km) Brightness Sun altitude
Exits shadow 10:25:36 - 240° (WSW) 1,706 ? -7.5°
Reaches altitude 10° 10:25:45 10° 241° (WSW) 1,647 ? -7.5°
Maximum altitude 10:29:21 51° 318° (NW) 618 ? -7.0°
Drops below altitude 10° 10:33:01 10° 35° (NE) 1,680 ? -6.6°
Sets 10:35:15 0° 41° (NE) 2,572 ? -6.3°
